User: anonymous   Login
Location: STAR School
(35.3054°N, 111.2976°W)
Time: 09:50:38
(UTC-07:00)
Language:

Courier 1B Rocket - Orbit

View from above orbital plane
View from above orbital plane
View from above satellite
View from above satellite

Ground track
Ground track

The orbit data is extracted from the following two-line orbital elements,

1    59U 60013B   19140.09310080  .00000079  00000-0 -16142-4 0  9995
2    59  28.2494  83.9256 0189263 216.2077 142.5523 13.52968442893660
Epoch (UTC): 20 May 2019 02:14:03
Eccentricity: 0.0189263
inclination: 28.2494°
perigee height: 920 km
apogee height: 1202 km
right ascension of ascending node: 83.9256°
argument of perigee: 216.2077°
revolutions per day: 13.52968442
mean anomaly at epoch: 142.5523°
orbit number at epoch: 89366

The dashed part of the orbit path shows where the satellite is in the earth's shadow,  

DLR